Location: Hopewell Observatory
(38.8698°N, 77.6988°W)
Time: 18:50:05
(UTC-04:00)

IGS 5A - Pass Details

Date: 26 May 2018
Orbit: 585 x 588 km, 97.7° (Epoch: 03 October)

Event Time Altitude Azimuth Distance (km) Brightness Sun altitude
Exits shadow 23:30:37 45° 272° (W) 798 4.2 -25.7°
Drops below altitude 10° 23:34:22 10° 335° (NNW) 1,915 7.1 -26.0°
Sets 23:36:36 0° 342° (NNW) 2,820 8.3 -26.2°
